ICEYE-X1 (43114 NORAD) Tracking and Keplerian Element Data

This shows tracking and keplerian element data for the satellite.

Feedback or suggestion? Click here.




ElementValue
Catalog43114
NameICEYE-X1
Epoch Orbit13809
Epoch Day189.81173404
Epoch Year2020
RAAN259.7955
Inclination97.444
Eccentricity0.0009166
Argument of Perigee339.9216
Mean Anonmoly20.1659
Mean Motion15.23410836
Decay Rate6.59E-06
L11 43114U 18004D 20189.81173404 .00000659 00000-0 30654-4 0 9996
L22 43114 97.4440 259.7955 0009166 339.9216 20.1659 15.23410836138097

Live tracking and technical data element details for ICEYE-X1 (NORAD 43114). ICEYE-X1 can be tracked NOW for your location showing map with azimuth and elevation plus other details from your city location.

Track the satellite on the map from your city or location and see movement details for azimuth, elevation, latitude, longitude, range, height, and movement on the map or in text.







IsCatalogInMostPopularTable: catalog: 43114, numindb: 510
Update: records affected: 1



GetName: 43114 ICEYE-X1

Hit Count: updated at: Wed, 08 Jul 2020 22:44:57 GMT